GFSFLT1_250_rhum_129.txt.gz
RH
55 56 61 58 57 57 52 51 62 70 71 98 100 100 96 90 83 78 75 79 72 57 60 53 49 39 30 25 23 24 39 59
81 74 72 75 71 69 91 91 100 100 100 100 100 100 100 100 100 100 99 78 69 62 69 69 55 51 39 26 27 26 22 49
81 84 80 83 94 90 85 97 99 99 100 100 100 100 97 81 73 66 64 60 54 54 61 59 56 53 42 36 30 24 25 32
83 92 94 90 90 89 86 81 81 75 71 74 78 83 84 76 76 68 68 68 63 62 52 43 36 40 39 35 30 24 22 21
64 73 77 72 72 75 77 72 68 71 74 80 76 68 59 54 57 54 56 51 45 40 30 27 27 26 21 18 19 18 17 19
73 79 78 76 74 77 75 75 75 75 69 71 68 62 51 40 38 34 29 27 27 20 17 16 15 15 15 14 13 13 13 16
68 64 57 51 44 42 40 40 43 44 43 42 38 33 29 24 20 18 17 18 19 17 15 14 14 14 13 11 11 10 10 12
65 69 68 57 47 38 31 28 24 22 20 17 17 16 16 16 16 16 17 17 17 17 15 15 17 17 15 14 12 10 9 9
72 70 61 50 44 39 29 25 24 22 20 17 17 17 18 17 16 16 18 18 22 20 17 20 20 18 19 16 15 14 12 11
76 64 57 43 32 29 25 25 25 21 18 19 20 21 20 21 19 20 26 23 24 20 21 30 52 48 47 37 38 23 18 14
75 66 51 38 33 33 34 29 25 23 25 27 29 31 27 30 24 27 34 30 40 40 56 60 65 59 72 73 56 40 30 18
63 57 46 38 32 33 33 32 29 30 31 33 35 37 42 34 27 34 39 48 58 74 100 100 81 68 78 66 69 55 44 33
61 50 43 30 30 35 32 37 40 36 33 33 36 36 35 28 29 36 52 60 77 96 100 100 96 94 90 79 70 60 50 50
48 39 34 32 34 29 36 38 45 42 31 30 31 29 27 29 27 37 64 81 82 92 100 97 86 85 85 82 74 71 62 64
46 38 36 35 24 21 28 35 36 26 28 26 24 22 29 26 24 34 55 73 86 92 100 94 93 91 91 95 94 96 86 82
46 47 36 25 18 17 21 24 22 24 23 22 24 22 23 21 21 29 42 66 82 98 100 100 100 97 99 95 96 100 92 78
50 39 29 23 20 20 25 19 20 21 25 26 20 17 17 19 20 26 40 59 71 81 95 100 100 96 96 100 94 100 100 82
36 28 21 19 19 25 20 18 21 28 27 20 18 18 20 20 18 20 31 44 68 91 87 94 99 97 100 99 95 96 88 85
26 19 14 18 22 19 18 21 29 26 22 23 30 40 46 53 48 31 30 43 63 70 80 89 99 99 98 100 99 100 86 88

GFSFLT1_250_rhum_132.txt.gz
RH
56 64 59 56 48 46 41 39 40 49 62 69 72 62 58 54 52 51 54 76 95 100 100 100 96 78 62 45 40 35 29 25
69 68 63 62 63 71 62 56 46 46 67 80 76 90 86 84 95 98 84 96 100 100 100 100 100 100 100 81 60 51 32 24
89 80 68 68 82 80 76 65 55 50 53 60 64 72 68 65 62 62 71 88 91 93 92 90 97 98 90 73 58 40 33 30
83 89 87 86 84 92 92 72 65 55 55 59 55 51 47 58 61 66 62 58 53 55 56 54 57 56 50 45 42 40 28 22
80 83 95 95 99 84 85 86 70 61 57 58 56 49 45 39 36 42 47 53 50 53 50 51 58 51 42 38 32 28 24 22
100 100 100 100 96 99 93 86 72 66 70 67 59 46 32 26 26 25 25 25 29 39 48 53 53 47 41 34 30 25 20 20
99 100 100 100 100 100 96 75 62 68 71 62 47 29 20 18 18 18 19 20 20 21 23 23 22 18 18 18 16 14 14 13
100 100 100 100 100 100 86 67 66 60 53 39 26 17 18 16 15 15 16 17 18 17 19 18 16 15 15 14 15 15 14 14
100 100 100 100 99 78 62 61 58 52 43 28 21 19 18 16 15 16 16 19 18 20 19 18 17 17 15 15 15 16 16 15
100 99 80 82 62 64 69 59 51 47 33 24 22 22 20 16 19 21 22 21 22 24 24 22 21 20 18 19 18 17 21 17
84 67 59 68 70 67 61 51 55 42 26 24 24 24 21 22 26 27 28 22 26 29 31 31 28 24 22 24 26 29 36 33
72 64 75 72 68 59 54 61 47 32 24 25 27 22 19 23 27 29 29 23 27 33 32 30 34 45 48 60 66 67 69 64
64 78 63 67 63 58 68 56 51 34 30 28 27 21 25 22 23 22 23 24 29 28 30 38 49 77 73 98 69 69 79 77
64 64 70 71 68 71 65 59 42 33 33 28 24 25 24 20 18 22 23 23 21 26 32 51 69 78 97 100 100 100 100 85
72 72 80 82 67 70 75 51 32 31 28 23 19 23 17 16 19 19 21 22 24 28 34 52 68 83 100 99 100 98 86 86
86 73 76 79 70 70 60 42 30 28 23 18 19 17 14 16 17 21 26 27 27 25 39 54 66 86 94 100 98 95 90 88
80 86 82 76 72 53 38 28 28 22 16 19 19 15 16 19 22 20 20 21 21 21 35 58 64 82 92 98 100 100 78 75
90 82 78 80 63 41 28 25 20 15 19 18 16 17 24 23 19 19 20 20 18 19 24 39 61 76 87 98 100 100 100 99
93 85 79 51 33 26 25 17 15 17 17 16 21 26 22 22 28 34 38 41 32 22 20 33 44 61 71 88 100 100 100 100

GFSFLT1_250_rhum_135.txt.gz
RH
80 82 92 91 80 45 39 45 58 60 67 73 67 67 69 62 58 52 45 41 40 46 56 56 55 50 47 49 59 57 44 36
100 100 94 44 46 44 47 75 80 83 89 84 89 90 82 80 73 65 56 47 47 44 39 49 58 67 64 44 43 61 62 52
32 37 44 57 51 49 49 67 80 92 96 99 96 88 89 89 85 67 62 63 60 52 49 46 38 38 52 70 80 78 82 70
59 57 67 83 74 70 78 74 76 87 100 100 100 100 99 91 72 67 64 62 56 49 44 45 42 35 32 34 38 41 52 52
55 52 62 72 81 91 96 86 88 90 100 100 100 100 76 64 65 66 62 53 43 34 27 24 24 25 25 26 25 24 27 28
71 80 78 85 90 79 93 96 89 99 100 100 91 61 62 58 53 47 39 33 30 24 18 16 15 17 18 20 20 17 15 15
100 100 100 97 92 99 94 96 96 100 100 80 66 54 52 48 44 33 29 24 16 16 17 18 19 17 14 14 14 13 13 13
100 98 96 97 96 94 90 93 98 100 83 62 60 56 52 46 36 30 22 15 15 15 16 17 18 17 14 12 12 13 12 12
86 98 93 100 97 84 92 94 93 76 68 62 61 56 53 41 32 25 16 15 14 13 15 19 28 21 16 14 13 12 12 12
89 85 96 89 81 90 93 80 72 62 51 51 55 62 51 41 33 22 18 16 12 12 17 22 31 28 22 18 16 15 14 13
100 100 100 94 82 81 76 66 62 54 50 59 65 64 52 36 30 23 19 16 12 13 16 23 30 26 26 26 23 21 18 17
95 95 87 81 78 75 53 64 61 60 63 65 66 59 44 35 25 22 20 15 11 15 16 19 21 22 28 32 28 29 30 25
89 77 68 80 78 62 61 58 69 73 65 66 73 54 36 27 21 19 18 14 13 15 14 17 21 25 33 33 34 38 50 56
75 75 70 80 85 77 75 79 72 65 69 80 64 41 25 19 16 16 14 14 16 13 14 17 21 27 30 33 45 53 63 66
70 84 98 99 97 82 78 69 69 82 84 65 56 35 20 15 13 12 14 15 13 13 14 16 19 24 29 42 45 49 93 94
100 97 95 94 70 82 75 63 86 74 75 66 42 19 16 14 12 14 14 12 14 17 20 22 23 26 34 49 61 60 73 100
100 100 97 100 84 67 68 86 77 73 59 37 26 16 13 13 14 14 13 16 21 23 20 19 22 25 36 52 72 65 66 80
91 100 99 72 70 83 87 66 68 52 40 26 16 14 14 14 14 14 19 22 20 20 19 17 18 21 29 52 71 75 67 75
100 97 92 89 85 61 58 53 38 38 24 18 14 14 15 14 17 23 22 22 24 28 29 30 26 21 24 46 66 72 74 87

GFSFLT1_250_rhum_138.txt.gz
RH
99 100 89 73 63 54 51 58 46 47 54 63 61 64 70 70 83 80 72 72 84 80 76 55 51 43 36 28 30 29 33 35
100 87 78 67 44 37 41 39 43 51 53 64 58 61 73 74 76 75 78 94 81 92 63 53 55 52 50 49 39 32 26 29
100 89 62 55 52 61 58 60 60 65 70 66 66 71 74 76 86 80 98 93 100 86 80 72 67 60 54 46 42 36 33 30
83 69 72 80 73 69 65 69 87 89 75 66 70 75 76 74 71 92 100 100 98 80 71 72 61 45 36 30 28 28 28 26
100 95 92 84 76 67 74 88 80 76 77 80 77 80 79 85 91 96 100 89 67 52 48 42 38 33 26 21 20 19 16 17
100 98 100 98 100 100 83 74 77 81 80 89 89 82 94 96 97 72 66 60 52 44 39 31 27 22 19 15 11 11 11 11
100 99 100 100 95 93 89 84 85 84 84 84 81 88 96 95 65 53 49 44 41 40 30 28 24 21 13 13 13 13 11 10
86 94 99 100 98 90 85 93 79 78 84 80 80 89 76 54 51 48 42 48 48 41 30 24 18 13 14 16 16 13 11 9
98 92 100 100 92 93 94 85 87 85 82 73 68 54 49 49 47 45 51 53 55 44 29 20 13 12 13 14 14 11 10 10
93 100 100 100 100 100 96 91 84 79 76 63 54 50 50 50 51 54 62 61 48 39 28 17 13 11 11 11 14 13 14 15
94 100 100 100 99 96 95 83 74 62 56 54 50 48 51 57 58 71 63 57 38 24 18 14 11 9 10 12 16 16 19 20
99 100 100 100 85 64 59 55 54 56 59 59 61 56 63 56 71 62 58 38 31 18 14 12 9 8 11 14 14 16 20 21
100 80 69 83 66 68 58 62 60 92 85 57 62 73 64 71 58 47 40 26 19 12 11 9 8 10 12 13 15 18 19 25
79 86 69 69 83 75 74 90 86 61 63 91 92 71 78 64 46 39 31 19 14 10 10 9 11 12 11 13 16 21 26 34
82 87 79 77 94 84 67 92 90 100 98 67 83 76 58 52 52 33 21 15 11 10 10 12 12 12 12 14 17 22 30 37
82 100 100 94 89 98 100 100 100 100 100 88 82 80 67 53 32 23 15 13 10 10 11 12 14 15 16 19 24 26 31 48
100 100 100 96 100 100 100 100 100 77 88 78 63 68 60 30 24 17 14 12 11 12 13 16 19 18 19 21 28 30 40 55
100 100 99 100 100 100 100 94 65 54 65 68 69 37 29 22 16 14 12 12 12 15 18 19 18 19 19 18 22 29 39 58
100 100 100 100 100 100 68 44 39 48 66 42 27 26 21 17 15 13 12 13 16 20 20 18 19 23 27 23 19 22 32 58

GFSFLT1_250_rhum_144.txt.gz
RH
100 100 76 67 67 88 89 68 53 57 68 72 72 86 93 90 63 63 81 76 70 75 84 84 74 64 66 70 68 66 67 66
99 90 78 92 80 98 94 81 80 79 86 98 100 98 96 88 74 84 94 94 95 100 94 84 76 77 79 76 67 66 61 59
100 86 75 91 99 98 99 94 95 100 100 100 100 100 95 96 100 100 100 100 99 91 89 81 84 72 68 74 74 61 56 57
100 96 90 98 100 100 85 73 71 72 71 80 97 100 100 100 100 100 100 100 95 88 72 74 71 67 72 62 52 48 51 51
99 92 80 72 78 86 93 100 99 100 100 100 100 100 100 100 93 97 100 99 92 76 81 71 81 78 74 75 62 49 43 35
100 100 100 98 78 70 73 71 77 96 100 100 100 100 100 100 89 84 86 98 89 78 82 98 85 76 71 56 46 41 38 48
100 100 100 100 98 80 74 76 72 90 93 100 100 97 86 84 73 71 83 89 89 98 100 91 80 66 54 41 40 39 41 57
100 100 100 100 92 81 81 76 78 84 85 83 72 73 66 66 64 71 83 100 100 100 91 88 60 52 59 53 45 45 53 32
100 100 94 87 94 81 83 83 86 82 78 76 82 77 94 99 100 100 100 100 94 77 69 60 50 46 44 42 55 69 52 20
79 78 74 75 77 71 70 72 73 74 84 86 84 73 80 92 100 100 97 86 79 65 64 43 43 41 42 55 68 48 21 14
73 70 71 65 64 63 76 78 79 68 80 87 87 89 77 88 100 99 91 65 75 66 44 46 59 39 44 78 70 21 16 12
80 73 75 71 69 79 98 98 89 88 100 89 100 98 83 64 67 95 53 64 51 47 49 66 71 64 81 75 23 17 13 10
76 72 75 79 84 81 100 100 100 98 97 97 81 99 64 67 55 61 58 47 49 71 100 92 78 64 47 25 19 14 10 8
67 63 68 84 89 87 100 100 98 77 96 86 77 83 95 85 75 54 62 81 100 99 88 95 54 44 30 21 15 12 9 8
82 86 88 93 91 68 79 68 88 89 83 78 73 85 87 56 54 85 100 100 100 95 85 82 53 28 24 17 14 12 10 9
100 100 100 100 98 92 100 100 100 100 85 74 97 96 83 98 85 100 88 66 82 92 99 56 29 23 21 16 14 12 12 13
100 100 100 100 96 100 100 100 100 100 100 97 90 100 100 99 100 100 100 97 85 85 80 35 25 22 19 16 14 16 16 17
100 100 100 100 100 100 100 100 100 100 100 100 100 100 100 100 98 100 100 97 89 79 40 23 24 19 17 16 17 19 20 20
100 100 100 100 100 100 100 100 100 100 100 100 100 100 100 100 100 100 100 75 50 29 23 24 20 17 18 15 20 23 25 28